Stündliche Wetter Holodnoe

Heute, 15 Juni, Dienstag

Zeit Temperatur Niederschläge Wind Luftdruck Luftfeuchtigkeit
00:00 +17°C° 0 mm 2 m/S 738 mmHg 89%
01:00 +17°C° 0 mm 2 m/S 738 mmHg 90%
02:00 +16°C° 0 mm 2 m/S 738 mmHg 91%
03:00 +17°C° 0 mm 2 m/S 738 mmHg 91%
04:00 +17°C° 0 mm 2 m/S 738 mmHg 92%
05:00 +17°C° 0 mm 2 m/S 738 mmHg 93%
06:00 +19°C° 0 mm 2 m/S 738 mmHg 88%
07:00 +20°C° 0 mm 3 m/S 738 mmHg 83%
08:00 +22°C° 0 mm 3 m/S 738 mmHg 79%
09:00 +24°C° 0.2 mm 3 m/S 738 mmHg 75%
10:00 +25°C° 0.2 mm 3 m/S 738 mmHg 71%
11:00 +26°C° 0.2 mm 3 m/S 738 mmHg 67%
12:00 +26°C° 0.6 mm 3 m/S 737 mmHg 66%
13:00 +26°C° 0.6 mm 3 m/S 737 mmHg 65%
14:00 +27°C° 0.6 mm 3 m/S 737 mmHg 64%
15:00 +26°C° 0.6 mm 3 m/S 737 mmHg 68%
16:00 +26°C° 0.6 mm 3 m/S 736 mmHg 72%
17:00 +25°C° 0.6 mm 2 m/S 736 mmHg 76%
18:00 +24°C° 0.4 mm 2 m/S 736 mmHg 79%
19:00 +21°C° 0.4 mm 2 m/S 736 mmHg 82%
20:00 +20°C° 0.4 mm 2 m/S 736 mmHg 85%
21:00 +20°C° 0.9 mm 1 m/S 736 mmHg 86%
22:00 +20°C° 0.9 mm 1 m/S 736 mmHg 87%
23:00 +19°C° 0.9 mm 1 m/S 736 mmHg 89%

Morgen, 16 Juni, Mittwoch

Zeit Temperatur Niederschläge Wind Luftdruck Luftfeuchtigkeit
00:00 +19°C° 0.1 mm 1 m/S 736 mmHg 89%
01:00 +17°C° 0.1 mm 0 m/S 736 mmHg 89%
02:00 +17°C° 0.1 mm 0 m/S 736 mmHg 89%
03:00 +19°C° 0 mm 1 m/S 736 mmHg 89%
04:00 +19°C° 0 mm 1 m/S 736 mmHg 90%
05:00 +20°C° 0 mm 1 m/S 736 mmHg 90%
06:00 +21°C° 0.4 mm 1 m/S 737 mmHg 86%
07:00 +22°C° 0.4 mm 1 m/S 737 mmHg 82%
08:00 +23°C° 0.4 mm 1 m/S 737 mmHg 78%
09:00 +24°C° 0.4 mm 1 m/S 737 mmHg 73%
10:00 +25°C° 0.4 mm 1 m/S 737 mmHg 68%
11:00 +26°C° 0.4 mm 2 m/S 737 mmHg 64%
12:00 +27°C° 0.3 mm 2 m/S 738 mmHg 63%
13:00 +27°C° 0.3 mm 2 m/S 738 mmHg 61%
14:00 +27°C° 0.3 mm 2 m/S 738 mmHg 60%
15:00 +26°C° 0.8 mm 2 m/S 738 mmHg 66%
16:00 +26°C° 0.8 mm 3 m/S 738 mmHg 72%
17:00 +25°C° 0.8 mm 3 m/S 738 mmHg 77%
18:00 +24°C° 0.1 mm 3 m/S 739 mmHg 82%
19:00 +21°C° 0.1 mm 3 m/S 739 mmHg 86%
20:00 +20°C° 0.1 mm 3 m/S 739 mmHg 91%
21:00 +19°C° 0 mm 3 m/S 739 mmHg 92%
22:00 +19°C° 0 mm 3 m/S 740 mmHg 94%
23:00 +18°C° 0 mm 3 m/S 740 mmHg 95%

übermorgen, 17 Juni, Donnerstag

Zeit Temperatur Niederschläge Wind Luftdruck Luftfeuchtigkeit
00:00 +18°C° 0 mm 4 m/S 740 mmHg 95%
01:00 +17°C° 0 mm 4 m/S 740 mmHg 95%
02:00 +17°C° 0 mm 4 m/S 740 mmHg 95%
03:00 +17°C° 0 mm 4 m/S 741 mmHg 94%
04:00 +17°C° 0 mm 4 m/S 741 mmHg 94%
05:00 +17°C° 0 mm 4 m/S 741 mmHg 93%
06:00 +17°C° 0 mm 5 m/S 742 mmHg 88%
07:00 +20°C° 0 mm 6 m/S 742 mmHg 83%
08:00 +21°C° 0 mm 6 m/S 742 mmHg 78%
09:00 +22°C° 0 mm 6 m/S 743 mmHg 74%
10:00 +22°C° 0 mm 6 m/S 743 mmHg 69%
11:00 +23°C° 0 mm 6 m/S 743 mmHg 64%
12:00 +23°C° 0 mm 6 m/S 743 mmHg 63%
13:00 +23°C° 0 mm 6 m/S 743 mmHg 62%
14:00 +23°C° 0 mm 6 m/S 743 mmHg 61%
15:00 +23°C° 0 mm 6 m/S 744 mmHg 64%
16:00 +22°C° 0 mm 6 m/S 744 mmHg 67%
17:00 +22°C° 0 mm 5 m/S 744 mmHg 71%
18:00 +20°C° 0 mm 5 m/S 744 mmHg 74%
19:00 +19°C° 0 mm 5 m/S 745 mmHg 78%
20:00 +17°C° 0 mm 4 m/S 745 mmHg 82%
21:00 +17°C° 0 mm 4 m/S 745 mmHg 84%
22:00 +15°C° 0 mm 4 m/S 745 mmHg 85%
23:00 +14°C° 0 mm 4 m/S 745 mmHg 87%

18 Juni, Freitag

Zeit Temperatur Niederschläge Wind Luftdruck Luftfeuchtigkeit
00:00 +13°C° 0 mm 4 m/S 746 mmHg 86%
01:00 +13°C° 0 mm 4 m/S 746 mmHg 86%
02:00 +12°C° 0 mm 3 m/S 746 mmHg 85%
03:00 +13°C° 0 mm 3 m/S 746 mmHg 84%
04:00 +13°C° 0 mm 4 m/S 746 mmHg 84%
05:00 +13°C° 0 mm 4 m/S 747 mmHg 83%
06:00 +15°C° 0 mm 4 m/S 747 mmHg 78%
07:00 +16°C° 0 mm 5 m/S 747 mmHg 72%
08:00 +19°C° 0 mm 5 m/S 748 mmHg 67%
09:00 +20°C° 0 mm 5 m/S 748 mmHg 64%
10:00 +21°C° 0 mm 6 m/S 748 mmHg 61%
11:00 +22°C° 0 mm 6 m/S 748 mmHg 58%
12:00 +22°C° 0 mm 6 m/S 748 mmHg 58%
13:00 +22°C° 0 mm 5 m/S 748 mmHg 57%
14:00 +23°C° 0 mm 5 m/S 748 mmHg 56%
15:00 +22°C° 0 mm 5 m/S 748 mmHg 60%
16:00 +22°C° 0 mm 5 m/S 748 mmHg 64%
17:00 +22°C° 0 mm 4 m/S 747 mmHg 67%
18:00 +20°C° 0 mm 4 m/S 748 mmHg 72%
19:00 +19°C° 0 mm 3 m/S 748 mmHg 77%
20:00 +17°C° 0 mm 3 m/S 748 mmHg 82%
21:00 +16°C° 0 mm 3 m/S 748 mmHg 84%
22:00 +14°C° 0 mm 3 m/S 748 mmHg 85%
23:00 +14°C° 0 mm 3 m/S 748 mmHg 87%

19 Juni, Samstag

Zeit Temperatur Niederschläge Wind Luftdruck Luftfeuchtigkeit
00:00 +13°C° 0 mm 3 m/S 748 mmHg 88%
01:00 +13°C° 0 mm 3 m/S 748 mmHg 89%
02:00 +12°C° 0 mm 3 m/S 748 mmHg 89%
03:00 +13°C° 0 mm 3 m/S 749 mmHg 89%
04:00 +13°C° 0 mm 3 m/S 749 mmHg 88%
05:00 +14°C° 0 mm 3 m/S 749 mmHg 88%
06:00 +16°C° 0 mm 3 m/S 749 mmHg 83%
07:00 +18°C° 0 mm 3 m/S 749 mmHg 77%
08:00 +20°C° 0 mm 4 m/S 749 mmHg 72%
09:00 +21°C° 0 mm 4 m/S 749 mmHg 69%
10:00 +22°C° 0 mm 4 m/S 749 mmHg 65%
11:00 +23°C° 0 mm 4 m/S 749 mmHg 62%
12:00 +23°C° 0 mm 4 m/S 749 mmHg 60%
13:00 +23°C° 0 mm 4 m/S 748 mmHg 59%
14:00 +25°C° 0 mm 4 m/S 748 mmHg 58%
15:00 +23°C° 0 mm 4 m/S 748 mmHg 61%
16:00 +23°C° 0 mm 4 m/S 748 mmHg 64%
17:00 +24°C° 0 mm 3 m/S 747 mmHg 68%
18:00 +21°C° 0 mm 3 m/S 747 mmHg 73%
19:00 +19°C° 0 mm 3 m/S 747 mmHg 78%
20:00 +17°C° 0 mm 2 m/S 747 mmHg 82%
21:00 +17°C° 0 mm 2 m/S 747 mmHg 84%
22:00 +16°C° 0 mm 2 m/S 747 mmHg 85%
23:00 +15°C° 0 mm 2 m/S 747 mmHg 86%

20 Juni, Sonntag

Zeit Temperatur Niederschläge Wind Luftdruck Luftfeuchtigkeit
00:00 +15°C° 0 mm 2 m/S 747 mmHg 87%
01:00 +15°C° 0 mm 2 m/S 747 mmHg 87%
02:00 +13°C° 0 mm 3 m/S 747 mmHg 88%
03:00 +15°C° 0 mm 2 m/S 747 mmHg 87%
04:00 +15°C° 0 mm 2 m/S 747 mmHg 87%
05:00 +16°C° 0 mm 2 m/S 747 mmHg 87%
06:00 +17°C° 0 mm 3 m/S 747 mmHg 81%
07:00 +19°C° 0 mm 3 m/S 747 mmHg 76%
08:00 +21°C° 0 mm 3 m/S 748 mmHg 70%
09:00 +22°C° 0 mm 4 m/S 747 mmHg 66%
10:00 +23°C° 0 mm 4 m/S 747 mmHg 62%
11:00 +25°C° 0 mm 4 m/S 747 mmHg 58%
12:00 +25°C° 0 mm 4 m/S 747 mmHg 58%
13:00 +26°C° 0 mm 4 m/S 746 mmHg 57%
14:00 +26°C° 0 mm 4 m/S 746 mmHg 56%
15:00 +26°C° 0 mm 3 m/S 746 mmHg 60%
16:00 +26°C° 0 mm 3 m/S 746 mmHg 63%
17:00 +26°C° 0 mm 3 m/S 746 mmHg 67%
18:00 +24°C° 0 mm 3 m/S 745 mmHg 72%
19:00 +21°C° 0 mm 2 m/S 745 mmHg 78%
20:00 +19°C° 0 mm 2 m/S 745 mmHg 83%
21:00 +19°C° 0 mm 2 m/S 745 mmHg 85%
22:00 +18°C° 0 mm 2 m/S 745 mmHg 86%
23:00 +18°C° 0 mm 2 m/S 745 mmHg 88%
Mehr zeigen

Wir brauchen deine Erlaubnis

Meteoprog und unser Service Anbieter werden persönliche Daten aufbewahren, so wie Cookies, Geräte Bezeichnung oder ähnliche Technologien von deinem Gerät und Prozess, so wie Persönliche Daten Inhalte und Werbungen, genauso wie social Media und den Verkehr zu analysieren.

  • Aufbewahrung und/oder Zugang zu deiner Geräte Informationen.

    Cookies, Geräte Bezeichnung oder andere Informationen, können aufbewahrt oder Zugang zu deinem Gerät erhalten, für den Grund, der oben angegeben wird.

  • Personalisierte Werbung und Inhalte, Messungen, Einblick in das Publikum und Produkt Entwicklung.

    Werbungen und Inhalte können personalisiert werden, basierend auf ein Profil. Mehr Daten können besser personalisierte Werbungen und Inhalte hinzufügen. Werbung und Inhalte können gezeigt und gemessen werden. Einblicke über das Publikum, welche die Werbung gesehen haben und den Inhalt, können abgeleitet werden. So wie Daten können genutzt werden, um es zu verbessern oder die Benutzer Erfahrung zu verbessern das System und die Software.

Wenn du “Ich stimme zu” klickst, erlaubst du uns, die Cookies zu benutzen die Geräte Bezeichnung, den Web oder ähnliche Technologien zu benutzen. Deine Settings, können in deinem Gerät bei deinem Browser geändert werden.

Für den bestimmten Zweck, berechtigten Interessen beruhen darauf, mehr als auf den Inhalt. Du kannst mehr darüber in unseren Privaten und Cookie Politik lesen.